Weather Roundup
Issued by NWS

Home | Current Version | Previous Version | Graphics & Text | Print | Product List | Glossary Off
Versions: 1 2 3 4 5 6 7 8 9 10 11 12 13 14 15 16 17 18 19 20 21 22 23 24 25 26 27 28 29 30 31 32 33 34 35 36 37 38 39 40 41 42 43 44 45 46 47 48 49 50

518
NZUS93 KARX 221259
HRRWXR

CURRENT HOURLY OBSERVATIONS ACROSS
MUCH OF THE UPPER MISSISSIPPI VALLEY
NATIONAL WEATHER SERVICE LA CROSSE WI
700 AM CST MON JAN 22 2018


...SOUTHEAST MINNESOTA...


CITY           SKY/WX    TMP DP  RH WIND       PRES   REMARKS
ROCHESTER      LGT SNOW  32  32 100 N23G30    29.65F VSB 3/4 WCI  19
ROCHESTER/MAYO CLOUDY    33  33  99 N8G17     29.70R WCI  26
WINONA         LGT RAIN  36  34  93 NE8       29.69F WCI  29
AUSTIN         LGT SNOW  34  30  86 NE17G28   29.60F WCI  23
ALBERT LEA     MIX PCPN  34  32  93 NE25G33   29.61F WCI  21
DODGE CENTER   LGT SNOW  32  30  93 N21G26    29.66F VSB 1   WCI  20
PRESTON        LGT RAIN  33  32  95 NE17G24   29.62F WCI  22
OWATONNA       LGT SNOW  34  30  86 N18       29.68F WCI  23
FARIBAULT      LGT SNOW  34  30  86 N14G21    29.73F WCI  24
$$

...ELSEWHERE IN MINNESOTA...


CITY           SKY/WX    TMP DP  RH WIND       PRES   REMARKS
MINNEAPOLIS    CLOUDY    32  30  92 NE17      29.81F WCI  21
INTNL FALLS    CLOUDY    20  16  84 E5        30.08S WCI  13
DULUTH         LGT SNOW  24  23  96 E17       29.97S VSB 3/4 WCI  11
RED WING       CLOUDY    36  27  69 NE10G17   29.77R WCI  28
REDWOOD FALLS  CLOUDY    30  28  92 N16G23    29.79F WCI  19
MANKATO        LGT SNOW  32  30  92 NE25G31   29.70F FOG     WCI  19
WORTHINGTON    LGT SNOW  28  27  96 N26G33    29.63F FOG     WCI  13
FAIRMONT       LGT SNOW  32  31  96 N24G32    29.62F FOG     WCI  19
$$

...SOUTHWEST WISCONSIN...


CITY           SKY/WX    TMP DP  RH WIND       PRES   REMARKS
LA CROSSE      RAIN      38  36  92 NE13G24   29.67F FOG     WCI  30
PRAIRIE DU CHI DRIZZLE   37  35  90 CALM      29.59F
BOSCOBEL       LGT RAIN  37  35  92 NE9G18    29.62F FOG     WCI  30
LONE ROCK      CLOUDY    37  35  92 E18G26    29.62F WCI  27
PLATTEVILLE    CLOUDY    37  37 100 NE20G26   29.55F WCI  27
FORT MC COY    RAIN      34  33  96 NE13G21   29.70F WCI  25
CAMP DOUGLAS   LGT RAIN  35  35  99 NE9       29.68F WCI  27
MAUSTON-NEW LI RAIN      35  34  96 NE8       29.69F WCI  29
VIROQUA        CLOUDY    35  35 100 NE18G28   29.62S WCI  24
WIS DELLS      LGT RAIN  34  33  98 NE16G25   29.66F WCI  23
$$

...ELSEWHERE IN WISCONSIN...


CITY           SKY/WX    TMP DP  RH WIND       PRES   REMARKS
MILWAUKEE      RAIN      37  37 100 NE14      29.67F VSB 1/2 WCI  28
MADISON        RAIN      37  36  96 NE17G24   29.65F FOG     WCI  27
GREEN BAY      LGT RAIN  33  31  92 NE29G39   29.79F FOG     WCI  19
EAU CLAIRE     NOT AVBL
BLACK RVR FLS  RAIN      35  35 100 NE10      29.72F WCI  28
MEDFORD        CLOUDY    32  29  89 NE14G21   29.79F WCI  22
WAUSAU         LGT SNOW  33  30  88 NE15      29.78S FOG     WCI  23
WIS RAPIDS     RAIN      34  33  96 E15G28    29.72F FOG     WCI  24
MARSHFIELD     LGT RAIN  34  32  92 NE21G26   29.72F FOG     WCI  22
RICE LAKE      CLOUDY    31  29  90 N17       29.85F WCI  20
$$

...NORTHEAST IOWA...


CITY           SKY/WX    TMP DP  RH WIND       PRES   REMARKS
WATERLOO       LGT RAIN  36  35  96 E16       29.50F WCI  26
DUBUQUE        RAIN      37  37 100 NE13      29.56R FOG     WCI  29
DECORAH        CLOUDY    36  36 100 NE15G23   29.58F WCI  26
MASON CITY     LGT RAIN  34  32  92 NE24G33   29.55F FOG     WCI  21
CHARLES CITY   RAIN      36  36 100 NE22G31   29.54F WCI  24
OELWEIN        RAIN      36  36 100 NE21G28   29.51F WCI  24
$$

...ELSEWHERE IN IOWA...


CITY           SKY/WX    TMP DP  RH WIND       PRES   REMARKS
DES MOINES     FOG       40  39  97 NE14      29.37F VSB 1/2 WCI  32
IOWA CITY      CLOUDY    44  42  93 NE9       29.48F FOG
FORT DODGE     CLOUDY    35  34  96 NE21G29   29.46F WCI  24
MARSHALLTOWN   CLOUDY    38  37  97 E20       29.42F WCI  28
CEDAR RAPIDS   FOG       41  41 100 E18       29.46F VSB 1/2
$$

...NORTHERN ILLINOIS...


CITY           SKY/WX    TMP DP  RH WIND       PRES   REMARKS
CHICAGO-OHARE  LGT RAIN  48  47  96 SE12      29.60F FOG
CHICAGO-MIDWAY RAIN      48  48 100 E8        29.62F FOG
MOLINE         CLOUDY    49  48  97 CALM      29.49F FOG
ROCKFORD       RAIN      40  40 100 NE10      29.59F FOG     WCI  33
PEORIA         CLOUDY    50  49  96 S15       29.55R FOG
$$

NOTE: "FAIR" INDICATES FEW OR NO CLOUDS BELOW 12,000 FEET WITH NO
SIGNIFICANT WEATHER AND/OR OBSTRUCTIONS TO VISIBILITY. WIND
SPEEDS ARE IN MILES-PER-HOUR.




USA.gov is the U.S. government's official web portal to all federal, state and local government web resources and services.